STARLINK-36401

Last updated on Tue Mar 10 2026 00:02:05 GMT+0000 (Coordinated Universal Time)

1 67696U 26025D 26068.26629530 .00249764 00000+0 16217-2 0 9994 2 67696 97.2829 179.8285 0000516 355.8283 4.2978 15.75263542 5879
UTC large
Height (km)
Speed (km/s)
/
Latitude / Longitude
Inclination (degrees)
Orbital Period (minutes)
Azimuth
Elevation
Range (km)
Doppler Factor

Next 0 passes for location: London (51.5072 / 0.1276)

Sorry there are no passes over London.